This is the latest recevied weather packets stored in our database for station/object KM4KBD. If no packets are shown the sender has not sent any weather packets the latest 10 day(s).
| Time | Temp. | Humidity | Pressure | Rain* | Wind** | Luminosity | Snow |
|---|---|---|---|---|---|---|---|
| 1777764397 | 11.67° C | 55% | 1022.6 hPa | 0 mm | - | 52 W/m² | - |
| 1777764095 | 12.22° C | 53% | 1022.5 hPa | 0 mm | - | 71 W/m² | - |
| 1777763792 | 12.22° C | 52% | 1022.6 hPa | 0 mm | - | 99 W/m² | - |
| 1777763490 | 11.67° C | 53% | 1022.7 hPa | 0 mm | - | 81 W/m² | - |
| 1777763188 | 11.67° C | 53% | 1022.7 hPa | 0 mm | - | 80 W/m² | - |
| 1777762886 | 11.67° C | 54% | 1022.7 hPa | 0 mm | - | 82 W/m² | - |
| 1777762581 | 11.67° C | 55% | 1022.8 hPa | 0 mm | - | 81 W/m² | - |
| 1777762278 | 11.67° C | 54% | 1022.6 hPa | 0 mm | - | 97 W/m² | - |
| 1777761974 | 11.67° C | 56% | 1022.7 hPa | 0 mm | - | 84 W/m² | - |
| 1777761671 | 11.67° C | 54% | 1023 hPa | 0 mm | - | 84 W/m² | - |
| 1777761369 | 11.67° C | 54% | 1022.7 hPa | 0 mm | - | 94 W/m² | - |
| 1777761068 | 11.67° C | 54% | 1022.7 hPa | 0 mm | - | 96 W/m² | - |
| 1777760765 | 12.22° C | 53% | 1022.9 hPa | 0 mm | - | 115 W/m² | - |
| 1777760461 | 12.22° C | 52% | 1022.7 hPa | 0 mm | - | 101 W/m² | - |
| 1777760156 | 12.22° C | 51% | 1022.7 hPa | 0 mm | - | 109 W/m² | - |
| 1777759854 | 12.22° C | 55% | 1022.8 hPa | 0 mm | - | 121 W/m² | - |
| 1777759549 | 12.22° C | 54% | 1022.6 hPa | 0 mm | - | 115 W/m² | - |
| 1777759246 | 12.22° C | 54% | 1022.6 hPa | 0 mm | - | 102 W/m² | - |
| 1777758944 | 12.22° C | 54% | 1022.6 hPa | 0 mm | - | 95 W/m² | - |
| 1777758640 | 12.22° C | 53% | 1022.5 hPa | 0 mm | - | 107 W/m² | - |
| 1777758337 | 12.22° C | 55% | 1022.4 hPa | 0 mm | - | 137 W/m² | - |
| 1777758035 | 12.22° C | 54% | 1022.5 hPa | 0 mm | - | 168 W/m² | - |
| 1777757731 | 12.22° C | 55% | 1022.5 hPa | 0 mm | - | 173 W/m² | - |
| 1777757429 | 12.78° C | 52% | 1022.4 hPa | 0 mm | - | 208 W/m² | - |
| 1777757128 | 12.22° C | 51% | 1022.4 hPa | 0 mm | - | 206 W/m² | - |
* Rain latest hour (hover to see other rain measurements)
** Current wind speed in m/s (hover to see current wind gust speed)